STARLINK-4274 (52865 NORAD) Tracking and Keplerian Element Data

This shows tracking and keplerian element data for the satellite.

Feedback or suggestion? Click here.




ElementValue
Catalog52865
NameSTARLINK-4274
Epoch Orbit1296
Epoch Day248.25001157
Epoch Year2022
RAAN16.7526
Inclination53.2173
Eccentricity0.0001388
Argument of Perigee52.2366
Mean Anonmoly329.2094
Mean Motion15.14656365
Decay Rate-0.01071686
L11 52865U 22062AM 22248.25001157 -.01071686 00000+0 -61830-1 0 9996
L22 52865 53.2173 16.7526 0001388 52.2366 329.2094 15.14656365 12969

Live tracking and technical data element details for STARLINK-4274 (NORAD 52865). STARLINK-4274 can be tracked NOW for your location showing map with azimuth and elevation plus other details from your city location.

Track the satellite on the map from your city or location and see movement details for azimuth, elevation, latitude, longitude, range, height, and movement on the map or in text.







IsCatalogInMostPopularTable: catalog: 52865, numindb: 4
Update: records affected: 1



GetName: 52865 STARLINK-4274

Hit Count: updated at: Sun, 25 Sep 2022 09:01:39 GMT